Volver al catálogo

STARLINK-35133

ActivoComunicacionesSSO
NORAD 65535·PAYLOAD·🇺🇸 United States

Lanzado Sep 6, 2025 desde Cape Canaveral Space Force Station

Loading…

Próximos Pases (próximas 24 horas)

TLE

ActualizadoSource: CelesTrak SupGP

Época: Sep 14, 2026, 20:47 UTC

1 65535C 25200R   26257.86645833 -.00035253  00000+0 -10943-2 0  2573
2 65535  97.2838 324.3844 0000862  90.4645 181.3142 15.33459650    17

Sigue STARLINK-35133 en tiempo real con AllMySat

Download on the App Store